When you browse on this site, cookies collect data to enhance your experience and personalize the content and advertising you see.
Visit our Privacy Policy to learn more. By continuing to use the site, you agree to this use of cookies and data.
  • In Switzerland
  • List of Countries
  • For 7 days
  • Water Temperature
  • Satellite Maps
  • Weather Map
  • Weather Widgets
  • user-avatar
    Login

    Hourly Weather Tovsta

    Today, 23 July, Tuesday

    Time Temperature Precipitation Wind Pressure Humidity
    00:00 +18°C° 0 mm 3 mps 743 mmHg 93%
    01:00 +17°C° 0 mm 3 mps 743 mmHg 94%
    02:00 +17°C° 0 mm 2 mps 743 mmHg 95%
    03:00 +17°C° 0 mm 2 mps 743 mmHg 94%
    04:00 +17°C° 0 mm 2 mps 743 mmHg 94%
    05:00 +16°C° 0 mm 2 mps 743 mmHg 93%
    06:00 +18°C° 0 mm 2 mps 743 mmHg 88%
    07:00 +19°C° 0 mm 3 mps 743 mmHg 82%
    08:00 +21°C° 0 mm 3 mps 743 mmHg 76%
    09:00 +22°C° 0 mm 3 mps 743 mmHg 70%
    10:00 +23°C° 0 mm 4 mps 743 mmHg 65%
    11:00 +25°C° 0 mm 4 mps 742 mmHg 59%
    12:00 +25°C° 0 mm 4 mps 742 mmHg 55%
    13:00 +26°C° 0 mm 4 mps 742 mmHg 52%
    14:00 +26°C° 0 mm 4 mps 741 mmHg 49%
    15:00 +26°C° 0 mm 4 mps 741 mmHg 51%
    16:00 +25°C° 0 mm 4 mps 741 mmHg 53%
    17:00 +25°C° 0 mm 4 mps 741 mmHg 54%
    18:00 +22°C° 0.1 mm 3 mps 741 mmHg 62%
    19:00 +20°C° 0.1 mm 3 mps 741 mmHg 69%
    20:00 +18°C° 0.1 mm 2 mps 741 mmHg 76%
    21:00 +17°C° 0 mm 2 mps 741 mmHg 80%
    22:00 +16°C° 0 mm 2 mps 741 mmHg 84%
    23:00 +16°C° 0 mm 2 mps 741 mmHg 89%

    Tomorrow, 24 July, Wednesday

    Time Temperature Precipitation Wind Pressure Humidity
    00:00 +15°C° 0 mm 2 mps 741 mmHg 89%
    01:00 +14°C° 0 mm 3 mps 741 mmHg 90%
    02:00 +14°C° 0 mm 3 mps 741 mmHg 91%
    03:00 +14°C° 0 mm 3 mps 740 mmHg 91%
    04:00 +15°C° 0 mm 2 mps 740 mmHg 92%
    05:00 +15°C° 0 mm 2 mps 740 mmHg 92%
    06:00 +16°C° 0 mm 3 mps 740 mmHg 88%
    07:00 +18°C° 0 mm 3 mps 740 mmHg 84%
    08:00 +19°C° 0 mm 4 mps 740 mmHg 80%
    09:00 +20°C° 0.4 mm 4 mps 740 mmHg 75%
    10:00 +21°C° 0.4 mm 4 mps 740 mmHg 70%
    11:00 +23°C° 0.4 mm 4 mps 740 mmHg 65%
    12:00 +23°C° 0.9 mm 5 mps 740 mmHg 66%
    13:00 +23°C° 0.9 mm 5 mps 740 mmHg 67%
    14:00 +23°C° 0.9 mm 5 mps 739 mmHg 68%
    15:00 +23°C° 0.6 mm 5 mps 740 mmHg 69%
    16:00 +23°C° 0.6 mm 5 mps 740 mmHg 70%
    17:00 +23°C° 0.6 mm 5 mps 740 mmHg 71%
    18:00 +21°C° 0.1 mm 4 mps 740 mmHg 76%
    19:00 +20°C° 0.1 mm 4 mps 740 mmHg 81%
    20:00 +19°C° 0.1 mm 3 mps 740 mmHg 86%
    21:00 +18°C° 0 mm 3 mps 740 mmHg 89%
    22:00 +17°C° 0 mm 3 mps 740 mmHg 91%
    23:00 +17°C° 0 mm 3 mps 741 mmHg 94%

    Day after tomorrow, 25 July, Thursday

    Time Temperature Precipitation Wind Pressure Humidity
    00:00 +16°C° 0 mm 3 mps 741 mmHg 94%
    01:00 +16°C° 0 mm 3 mps 741 mmHg 94%
    02:00 +15°C° 0 mm 4 mps 741 mmHg 93%
    03:00 +15°C° 0 mm 4 mps 741 mmHg 94%
    04:00 +14°C° 0 mm 4 mps 741 mmHg 94%
    05:00 +14°C° 0 mm 4 mps 741 mmHg 94%
    06:00 +17°C° 0 mm 4 mps 741 mmHg 87%
    07:00 +18°C° 0 mm 4 mps 741 mmHg 80%
    08:00 +20°C° 0 mm 5 mps 742 mmHg 73%
    09:00 +21°C° 0 mm 5 mps 742 mmHg 67%
    10:00 +22°C° 0 mm 5 mps 742 mmHg 61%
    11:00 +25°C° 0 mm 5 mps 742 mmHg 55%
    12:00 +25°C° 0 mm 5 mps 742 mmHg 54%
    13:00 +26°C° 0 mm 5 mps 742 mmHg 53%
    14:00 +26°C° 0 mm 5 mps 741 mmHg 52%
    15:00 +26°C° 0.2 mm 5 mps 741 mmHg 53%
    16:00 +25°C° 0.2 mm 5 mps 741 mmHg 55%
    17:00 +25°C° 0.2 mm 5 mps 741 mmHg 57%
    18:00 +22°C° 0.1 mm 4 mps 741 mmHg 63%
    19:00 +20°C° 0.1 mm 3 mps 741 mmHg 70%
    20:00 +19°C° 0.1 mm 3 mps 741 mmHg 76%
    21:00 +18°C° 0 mm 2 mps 741 mmHg 76%
    22:00 +18°C° 0 mm 2 mps 741 mmHg 77%
    23:00 +17°C° 0 mm 2 mps 741 mmHg 77%

    26 July, Friday

    Time Temperature Precipitation Wind Pressure Humidity
    00:00 +17°C° 0.2 mm 2 mps 741 mmHg 80%
    01:00 +16°C° 0.2 mm 2 mps 741 mmHg 83%
    02:00 +16°C° 0.2 mm 2 mps 740 mmHg 86%
    03:00 +16°C° 0.3 mm 3 mps 740 mmHg 87%
    04:00 +16°C° 0.3 mm 3 mps 740 mmHg 89%
    05:00 +16°C° 0.3 mm 3 mps 740 mmHg 90%
    06:00 +17°C° 0 mm 3 mps 740 mmHg 86%
    07:00 +19°C° 0 mm 3 mps 740 mmHg 81%
    08:00 +20°C° 0 mm 2 mps 740 mmHg 76%
    09:00 +21°C° 0.3 mm 2 mps 740 mmHg 72%
    10:00 +23°C° 0.3 mm 2 mps 740 mmHg 67%
    11:00 +24°C° 0.3 mm 2 mps 740 mmHg 63%
    12:00 +25°C° 0.4 mm 2 mps 739 mmHg 60%
    13:00 +26°C° 0.4 mm 2 mps 739 mmHg 58%
    14:00 +26°C° 0.4 mm 2 mps 739 mmHg 55%
    15:00 +26°C° 0.4 mm 2 mps 739 mmHg 55%
    16:00 +26°C° 0.4 mm 1 mps 738 mmHg 55%
    17:00 +26°C° 0.4 mm 1 mps 738 mmHg 54%
    18:00 +24°C° 0.1 mm 1 mps 738 mmHg 61%
    19:00 +23°C° 0.1 mm 1 mps 738 mmHg 67%
    20:00 +21°C° 0.1 mm 1 mps 738 mmHg 74%
    21:00 +18°C° 0.2 mm 0 mps 738 mmHg 77%
    22:00 +18°C° 0.2 mm 0 mps 738 mmHg 80%
    23:00 +17°C° 0.2 mm 0 mps 738 mmHg 84%

    27 July, Saturday

    Time Temperature Precipitation Wind Pressure Humidity
    00:00 +16°C° 0.1 mm 0 mps 737 mmHg 85%
    01:00 +16°C° 0.1 mm 0 mps 737 mmHg 86%
    02:00 +16°C° 0.1 mm 0 mps 737 mmHg 87%
    03:00 +16°C° 0 mm 0 mps 737 mmHg 88%
    04:00 +18°C° 0 mm 1 mps 737 mmHg 88%
    05:00 +16°C° 0 mm 1 mps 737 mmHg 89%
    06:00 +19°C° 0 mm 1 mps 737 mmHg 84%
    07:00 +21°C° 0 mm 1 mps 737 mmHg 79%
    08:00 +22°C° 0 mm 1 mps 737 mmHg 74%
    09:00 +24°C° 0.2 mm 1 mps 737 mmHg 68%
    10:00 +25°C° 0.2 mm 1 mps 737 mmHg 62%
    11:00 +27°C° 0.2 mm 1 mps 737 mmHg 57%
    12:00 +27°C° 0.6 mm 1 mps 736 mmHg 54%
    13:00 +27°C° 0.6 mm 1 mps 736 mmHg 51%
    14:00 +28°C° 0.6 mm 1 mps 736 mmHg 48%
    15:00 +27°C° 0.4 mm 1 mps 736 mmHg 51%
    16:00 +27°C° 0.4 mm 2 mps 735 mmHg 54%
    17:00 +26°C° 0.4 mm 2 mps 735 mmHg 58%
    18:00 +25°C° 0.5 mm 2 mps 735 mmHg 64%
    19:00 +23°C° 0.5 mm 2 mps 735 mmHg 71%
    20:00 +20°C° 0.5 mm 2 mps 735 mmHg 78%
    21:00 +20°C° 0.8 mm 1 mps 735 mmHg 82%
    22:00 +20°C° 0.8 mm 1 mps 735 mmHg 86%
    23:00 +19°C° 0.8 mm 1 mps 735 mmHg 90%

    28 July, Sunday

    Time Temperature Precipitation Wind Pressure Humidity
    00:00 +19°C° 0.1 mm 1 mps 735 mmHg 90%
    01:00 +18°C° 0.1 mm 1 mps 735 mmHg 91%
    02:00 +18°C° 0.1 mm 1 mps 735 mmHg 91%
    03:00 +17°C° 0 mm 2 mps 735 mmHg 93%
    04:00 +17°C° 0 mm 2 mps 735 mmHg 94%
    05:00 +16°C° 0 mm 2 mps 735 mmHg 95%
    06:00 +18°C° 0 mm 2 mps 735 mmHg 91%
    07:00 +20°C° 0 mm 3 mps 735 mmHg 87%
    08:00 +21°C° 0 mm 3 mps 735 mmHg 83%
    09:00 +22°C° 1 mm 3 mps 735 mmHg 77%
    10:00 +25°C° 1 mm 3 mps 735 mmHg 71%
    11:00 +26°C° 1 mm 3 mps 735 mmHg 66%
    12:00 +26°C° 0.6 mm 2 mps 735 mmHg 62%
    13:00 +27°C° 0.6 mm 2 mps 735 mmHg 59%
    14:00 +27°C° 0.6 mm 1 mps 734 mmHg 55%
    15:00 +27°C° 0.4 mm 2 mps 734 mmHg 59%
    16:00 +26°C° 0.4 mm 2 mps 734 mmHg 63%
    17:00 +26°C° 0.4 mm 2 mps 734 mmHg 67%
    18:00 +24°C° 0.3 mm 2 mps 734 mmHg 74%
    19:00 +23°C° 0.3 mm 2 mps 734 mmHg 81%
    20:00 +20°C° 0.3 mm 2 mps 734 mmHg 88%
    21:00 +20°C° 0 mm 2 mps 734 mmHg 90%
    22:00 +19°C° 0 mm 2 mps 734 mmHg 92%
    23:00 +19°C° 0 mm 2 mps 734 mmHg 94%
    Show more